Regional Weather Roundup
Issued by NWS

Home | Current Version | Previous Version | Graphics & Text | Print | Product List | Glossary On
Versions: 1 2 3 4 5 6 7 8 9 10 11 12 13 14 15 16 17 18 19 20 21 22 23 24 25 26 27
000
ASUS45 KBOU 261110
RWRCO

WEATHER ROUNDUP FOR COLORADO
NATIONAL WEATHER SERVICE DENVER/BOULDER CO
500 AM MDT MON SEP 26 2016

NOTE: "FAIR" INDICATES FEW OR NO CLOUDS BELOW 12000 FEET WITH NO
SIGNIFICANT WEATHER AND/OR OBSTRUCTIONS TO VISIBILITY.

COZ001>005-013-030-031-261200-
...NORTHWEST COLORADO...

CITY           SKY/WX    TMP DP  RH WIND       PRES   REMARKS
CRAIG          FAIR      30  28  92 CALM      30.50S
HAYDEN         FAIR      37  28  70 E13       30.50S
MEEKER         FAIR      34  32  92 E3        30.50S
MOUNT WERNER   NOT AVBL
STEAMBOAT SPGS FAIR      32  31  95 CALM      30.51F
WALDEN           N/A     23  21  93 SE8       30.56S WCI  14
$$

COZ006>008-011-261200-
...WEST CENTRAL VALLEYS...

CITY           SKY/WX    TMP DP  RH WIND       PRES   REMARKS
GRAND JUNCTION FAIR      48  37  65 SE15      30.41R
MONTROSE       FAIR      43  35  73 SE9       30.47S
EAGLE          FAIR      34  28  80 CALM      30.55R
RIFLE          FAIR      41  38  89 CALM      30.47R
DELTA          NOT AVBL
NUCLA          FAIR      41  34  75 SE6       30.47S
$$

COZ017>023-064>068-261200-
...SOUTHWEST COLORADO...

CITY           SKY/WX    TMP DP  RH WIND       PRES   REMARKS
DURANGO        FAIR      36  33  89 NE6       30.50R
CORTEZ         FAIR      37  34  89 NE3       30.44R
PAGOSA SPRINGS FAIR      37  34  86 CALM      30.54R
TELLURIDE      FAIR      40  34  80 CALM      30.58S
WOLF CREEK PAS FAIR      32  28  86 MISG      30.71S
$$

COZ009-010-012-014-032>034-037-058>063-261200-
...CENTRAL COLORADO...

CITY           SKY/WX    TMP DP  RH WIND       PRES   REMARKS
ASPEN          FAIR      34  29  82 S6        30.52S WCI  29
BUENA VISTA    FAIR      32  25  73 W3        30.56S
COPPER MTN     FAIR      41  18  38 CALM      30.69S
BERTHOUD PASS  FAIR      32  18  55 N12G17    30.71S WCI  23
COTTONWOOD PAS FAIR      43  27  52 SW3       30.61S
GUNNISON       FAIR      32  28  86 N5        30.56S WCI  27
KREMMLING      FAIR      30  23  74 CALM      30.57S
LEADVILLE      FAIR      26  21  81 NE3       30.60S
MONARCH PASS   FAIR      36  27  69 SW8       30.79S
SALIDA         FAIR      38  28  67 CALM      30.62S
SUNLIGHT       FAIR      37  32  81 E3        30.66F
WILKERSON PASS FAIR      34  27  75 W6        30.68S WCI  29
$$

COZ069>075-261200-
...SAN LUIS VALLEY/SANGRE DE CRISTO MOUNTAINS...

CITY           SKY/WX    TMP DP  RH WIND       PRES   REMARKS
ALAMOSA        FAIR      34  27  75 CALM      30.52R
LA VETA PASS   FAIR      37  28  70 MISG      30.61S
SAGUACHE       NOT AVBL
$$

COZ035-036-038>040-261200-
...NORTHERN COLORADO FRONT RANGE...

CITY           SKY/WX    TMP DP  RH WIND       PRES   REMARKS
DENVER INTL AP FAIR      45  30  55 SW8       30.41S
DMNS CITY PARK NOT AVBL
AURORA         CLEAR     43  31  61 S3        30.43S
FRONT RANGE AP NOT AVBL
ERIE MUNI ARPT FAIR      37  33  82 SW3       30.41S
BOULDER MUN AP FAIR      46  32  57 CALM      30.41S
CENTENNIAL     FAIR      44  30  57 S5        30.43S
BROOMFIELD     FAIR      52  32  46 CALM      30.43R
FORT COLLINS   FAIR      43  36  75 CALM      30.41S
LONGMONT       FAIR      41  33  72 CALM      30.42S
$$

COZ041-046-047-076>085-087-088-261200-
...PIKES PEAK/PALMER DIVIDE AND SOUTHERN FOOTHILLS...

CITY           SKY/WX    TMP DP  RH WIND       PRES   REMARKS
COLO. SPRINGS  FAIR      39  27  62 N6        30.48S
A. F. ACADEMY  FAIR      32  27  82 N8        30.47S WCI  24
SCHRIEVER AFB  NOT AVBL
ELLICOTT       NOT AVBL
FALCON         FAIR      37  28  69 W5        30.49F
FORT CARSON    FAIR      40  29  64 N3        30.45F
LIMON          FAIR      30  23  75 N6        30.44S WCI  24
MONUMENT HILL  FAIR      37  28  70 S9        30.49S
TRINIDAD       FAIR      45  32  60 W14       30.44F
$$

COZ042>045-048>051-090-091-261200-
...NORTHEAST COLORADO...

CITY           SKY/WX    TMP DP  RH WIND       PRES   REMARKS
GREELEY ARPT   FAIR      39  34  81 NW6       30.40S
AKRON          FAIR      45  31  58 SW12      30.39S
BURLINGTON     FAIR      41  33  73 SW7       30.40R
WRAY           FAIR      37  32  81 W5        30.38F
STERLING       FAIR      36  34  93 CALM      30.37F
HOLYOKE        FAIR      37  34  87 W5        30.38S
FORT MORGAN    FAIR      37  29  73 W8        30.39S
$$

COZ086-089-092>099-261200-
...SOUTHEAST COLORADO...

CITY           SKY/WX    TMP DP  RH WIND       PRES   REMARKS
PUEBLO         FAIR      42  26  53 N8        30.42F
LA JUNTA       FAIR      42  31  64 CALM      30.41F
LAMAR          FAIR      35  28  75 SW7       30.39F WCI  29
SPRINGFIELD    NOT AVBL
$$




USA.gov is the U.S. government's official web portal to all federal, state and local government web resources and services.